Location: �perlecques
(50.8057°N, 2.1521°E)
Time: 23:06:19
(UTC+00:00)

Vanguard 1 Rocket - Pass Details

Date: 07 August 2021
Orbit: 650 x 4226 km, 34.3° (Epoch: 28 September)

Event Time Altitude Azimuth Distance (km) Brightness Sun altitude
Rises 09:14:24 0° 240° (WSW) 8,409 12.1 42.6°
Reaches altitude 10° 09:21:04 10° 234° (SW) 7,169 11.9 43.5°
Maximum altitude 09:40:56 41° 175° (S) 3,776 11.7 46.1°
Drops below altitude 10° 09:52:45 10° 111° (ESE) 4,387 11.7 47.5°
Sets 09:55:42 0° 104° (ESE) 5,001 11.7 47.8°
